GW3602 Weather Reports


Display with metric or nautical units.
time (UTC)temp
F
wind
direction
speed
MPH
gust
MPH
rain 1hr
in
rain 24hr
in
rain mn
in
humidity
%
barometer
mb
20260502163020 39 287 2.0 5.0 0.00 0.27 0.16 74 1017.8
20260502161505 38 304 0.0 3.0 0.00 0.28 0.16 79 1017.8
20260502151527 37 27 0.0 5.0 0.00 0.39 0.16 82 1017.6
20260502123034 35 100 0.0 3.0 0.04 0.50 0.14 90 1016.8
20260502121505 34 256 0.0 3.0 0.05 0.49 0.13 90 1016.7
20260502114518 34 75 0.0 3.0 0.04 0.46 0.10 89 1016.6
20260502113020 34 339 0.0 1.0 0.05 0.46 0.10 89 1016.4
20260502111522 35 340 0.0 1.0 0.04 0.44 0.08 89 1016.4
20260502110029 35 6 0.0 1.0 0.04 0.43 0.07 89 1016.4
20260502104510 35 105 0.0 2.0 0.03 0.42 0.06 88 1016.2
20260502103019 36 315 0.0 2.0 0.02 0.41 0.05 88 1016.0
20260502101522 36 58 0.0 1.0 0.01 0.40 0.04 88 1015.9
20260502091518 36 79 0.0 3.0 0.00 0.39 0.03 88 1015.6
20260502071527 37 78 4.0 6.0 0.01 0.39 0.03 88 1015.4
20260502070030 37 96 2.0 4.0 0.00 0.38 0.02 88 1015.6
20260502064522 37 92 0.0 2.0 0.01 0.38 0.02 88 1015.6
20260502063026 38 84 0.0 2.0 0.01 0.38 0.02 88 1015.9
20260502061535 38 323 0.0 2.0 0.01 0.38 0.02 87 1016.0
20260502060013 38 318 0.0 2.0 0.01 0.38 0.02 87 1016.1
20260502054519 38 314 0.0 4.0 0.00 0.37 0.01 87 1016.3
20260502053025 39 323 0.0 4.0 0.01 0.37 0.01 87 1016.5
20260502051519 39 288 1.0 2.0 0.01 0.37 0.01 87 1016.3
20260502050012 39 315 0.0 2.0 0.01 0.37 0.01 87 1016.4
20260502044517 39 285 0.0 1.0 0.01 0.37 0.01 87 1016.4
20260502043024 39 285 0.0 1.0 0.00 0.36 0.00 87 1016.5
20260502041529 39 281 0.0 1.0 0.00 0.36 0.00 86 1016.6
20260502040013 39 284 0.0 0.0 0.00 0.36 0.00 85 1016.5
20260502034510 39 284 0.0 0.0 0.00 0.36 0.36 85 1016.3
20260502033024 39 284 0.0 0.0 0.00 0.36 0.36 85 1016.2
20260502031522 38 284 0.0 1.0 0.00 0.36 0.36 85 1016.1
20260502030026 38 284 0.0 0.0 0.00 0.36 0.36 85 1016.1
20260502024525 38 284 0.0 0.0 0.00 0.36 0.36 84 1016.1
20260502023016 38 285 0.0 0.0 0.00 0.36 0.36 85 1016.1
20260502021516 38 285 0.0 0.0 0.00 0.36 0.36 85 1016.0
20260502020024 37 285 0.0 0.0 0.00 0.36 0.36 85 1016.0
20260502014528 37 284 0.0 0.0 0.00 0.36 0.36 84 1015.9
20260502013026 37 284 0.0 0.0 0.00 0.36 0.36 83 1015.7
20260502011514 38 284 0.0 0.0 0.00 0.36 0.36 78 1015.6
20260502010020 39 284 0.0 1.0 0.00 0.36 0.36 78 1015.4
20260502004524 39 263 0.0 1.0 0.00 0.36 0.36 78 1015.2
20260502003023 40 284 0.0 2.0 0.00 0.36 0.36 77 1014.5
20260502001528 41 269 0.0 4.0 0.00 0.36 0.36 76 1014.3
20260502000020 42 281 0.0 3.0 0.00 0.36 0.36 75 1014.2
20260501234505 42 281 0.0 3.0 0.00 0.36 0.36 75 1014.1
20260501233005 42 304 0.0 3.0 0.00 0.36 0.36 74 1014.1
20260501231508 43 292 1.0 5.0 0.00 0.36 0.36 73 1014.0
20260501230012 43 302 3.0 6.0 0.00 0.36 0.36 73 1014.0
20260501224513 43 297 1.0 5.0 0.00 0.36 0.36 76 1013.7
20260501223017 42 250 2.0 6.0 0.00 0.36 0.36 76 1013.7
20260501221504 42 340 1.0 6.0 0.00 0.36 0.36 77 1013.8
20260501220011 43 285 2.0 9.0 0.00 0.36 0.36 77 1013.8
20260501214514 42 103 1.0 7.0 0.00 0.36 0.36 80 1013.5
20260501213018 42 348 1.0 4.0 0.00 0.36 0.36 84 1013.5
20260501211520 41 349 1.0 5.0 0.00 0.36 0.36 84 1013.5
20260501210009 41 243 1.0 4.0 0.00 0.36 0.36 85 1013.3
20260501204512 40 292 2.0 9.0 0.00 0.36 0.36 86 1013.2
20260501203020 40 306 3.0 8.0 0.01 0.36 0.36 86 1013.3
20260501201521 40 19 1.0 7.0 0.02 0.36 0.36 87 1013.1
20260501200021 40 293 3.0 6.0 0.03 0.36 0.36 86 1013.1
20260501194510 40 345 2.0 7.0 0.03 0.36 0.36 86 1012.9
20260501193019 41 347 2.0 7.0 0.03 0.35 0.35 87 1012.8
20260501191516 40 98 1.0 6.0 0.03 0.34 0.34 87 1012.8
20260501190020 41 296 2.0 5.0 0.04 0.33 0.33 87 1012.7
20260501184526 41 4 0.0 4.0 0.05 0.33 0.33 87 1012.5
20260501183014 41 330 1.0 4.0 0.05 0.32 0.32 86 1012.5
20260501181513 41 344 0.0 4.0 0.05 0.31 0.31 88 1012.4
20260501180032 41 309 0.0 4.0 0.04 0.29 0.29 88 1012.3